Hourly Data Report for June 15, 2002

SHERBROOKE A
QUEBEC

45°26'00.000" N
71°41'00.000" W
241.40 m
7028124
71610
YSC

Download Data

Hourly Data (June 2002)
Hourly Data Report for June 15, 2002
TIME
LST
Temp Definition
°C
Dew Point Definition
°C
Rel Hum Definition
%
Precip. Amount Definition
mm

Wind Dir Definition
10's deg

Wind Spd Definition
km/h
Visibility Definition
km
Stn Press Definition
kPa
Hmdx Definition


Wind Chill Definition


Weather Definition


00:00 13.9 9.8 76   4 6 15.0 98.17      
01:00 14.2 9.4 73   3 6 15.0 98.14      
02:00 13.8 9.8 77   5 6 15.0 98.15      
03:00 13.3 9.6 78   5 7 15.0 98.14      
04:00 12.8 9.4 80   5 7 15.0 98.11      
05:00 12.7 9.7 82   3 13 15.0 98.08      
06:00 13.2 9.7 79   5 11 15.0 98.09      
07:00 14.0 9.4 74   6 7 24.1 98.13     Cloudy
08:00 14.8 3.9 48   11 17 24.1 98.13     Cloudy
09:00 14.6 6.1 57   10 28 24.1 98.13     Cloudy
10:00 12.8 7.8 72   10 22 19.3 98.12     Rain Showers
11:00 12.8 8.8 77   10 17 19.3 98.11     Rain Showers
12:00 12.6 9.3 80   11 13 19.3 98.08     Rain
13:00 11.9 10.1 89   10 11 19.3 98.06     Rain
14:00 12.2 10.3 88   9 11 16.1 98.03     Rain
15:00 11.1 9.7 91   5 7 9.7 98.04     Rain, Fog
16:00 10.4 9.4 94   6 11 9.7 98.05     Rain, Fog
17:00 9.6 8.9 95   6 13 5.6 98.05     Moderate Rain
18:00 9.3 8.8 97   6 13 3.9 98.02      
19:00 8.9 8.0 94   7 11 15.0 98.08     Rain
20:00 8.4 6.6 88   7 15 15.0 98.08     Rain
21:00 8.3 7.2 93   5 7 15.0 98.06     Rain
22:00 7.8 7.3 97   6 7 15.0 98.01     Rain
23:00 7.8 7.4 97   4 7 12.9 98.00     Rain

Notes on Data Quality.

Legend

  • E = Estimated
  • M = Missing
  • NA = Not Available*
  • [empty] = Indicates an unobserved value
Date modified: